Simultaneous Nadir Overpasses (SNOs) Predictions

Prediction of SNOs between AQUA and NPP Satellite Orbit:

Table of predicted SNOs for the next 14.0 days since TLE Epoch: 11/13/2016
Index Date (AQUA) Time (AQUA) Lat,Lon (AQUA) SZA (AQUA ) Date (NPP) Time (NPP) Lat,Lon (NPP) SZA (NPP ) Distance(km) Time Diff (sec)
1 11/13/2016 13:15:44 74.69,-143.53 115.42 11/13/2016 13:15:03 74.68,-143.60 115.48 2.40 41
2 11/13/2016 14:04:38 -76.36, 28.90 66.31 11/13/2016 14:05:13 -76.37, 29.00 66.37 2.84 35
3 11/16/2016 05:32:00 75.32, -25.99 115.47 11/16/2016 05:31:45 75.31, -26.04 115.49 1.40 15
4 11/16/2016 06:21:06 -76.39, 144.87 65.65 11/16/2016 06:22:08 -76.38, 144.81 65.70 1.80 62
5 11/18/2016 20:59:17 -74.57, -79.70 63.13 11/18/2016 20:58:11 -74.57, -79.68 63.07 0.47 66
6 11/18/2016 21:48:15 75.93, 91.65 115.49 11/18/2016 21:48:26 75.93, 91.67 115.47 0.67 11
7 11/21/2016 13:15:41 -74.78, 36.71 62.73 11/21/2016 13:15:02 -74.77, 36.62 62.66 2.68 39
8 11/21/2016 14:04:39 76.12,-151.85 115.90 11/21/2016 14:05:17 76.12,-151.92 115.88 2.11 38
9 11/24/2016 05:31:52 -75.63, 154.89 63.01 11/24/2016 05:31:39 -75.63, 154.92 63.01 0.90 13
10 11/24/2016 06:20:54 76.74, -33.91 115.82 11/24/2016 06:21:58 76.75, -33.83 115.74 2.04 64
11 11/26/2016 20:59:09 74.75, 100.77 118.43 11/26/2016 20:58:06 74.75, 100.80 118.48 0.99 63




NCC Satellite Simultaneous Nadir Overpasses (SNOs) Prediction Service
